SCP
0 0 0 0 0 0 0 0 0 0 1 1 0 0 0 0 0 0 0 0 1 1 1 1 0 0 0 0 0 1 1 1 0 0 0 0 0 0 0 0 0 0 0
0 0 0 0 0 0 0 0 0 0 0 0 0 0 0 0 0 0 0 0 1 1 1 1 0 0 0 0 0 0 1 1 0 0 0 0 0 0 0 0 0 0 0
0 0 0 0 0 0 0 0 0 0 0 0 0 0 0 0 0 0 0 0 1 1 1 0 0 0 0 0 0 0 1 1 0 0 0 0 0 0 0 0 0 0 0
0 0 0 0 0 0 0 0 0 0 0 0 0 0 0 0 0 0 0 0 1 1 0 0 0 0 0 0 0 0 0 1 1 0 0 0 0 0 0 0 0 0 0
0 0 0 0 0 0 1 1 0 0 0 0 0 0 0 0 0 0 0 0 1 0 0 0 0 0 0 0 0 0 0 1 1 1 1 0 0 0 0 0 0 0 0
0 0 0 0 0 1 1 1 1 0 0 0 0 0 0 0 0 0 0 0 0 0 0 0 0 0 0 0 0 0 0 0 1 1 1 0 0 0 0 0 0 0 0
0 0 0 0 0 1 1 1 1 0 0 0 0 0 0 0 0 0 0 0 0 0 0 0 0 0 0 0 0 0 0 0 0 0 0 0 0 0 0 0 0 0 0
0 0 0 0 0 0 0 0 0 0 0 0 0 0 0 0 0 0 0 0 0 0 0 0 0 0 0 0 0 0 0 0 0 0 0 0 0 0 0 0 0 0 0
0 0 0 0 0 0 0 0 0 0 0 0 0 0 0 0 0 0 0 0 0 0 0 0 0 0 0 0 0 0 0 0 0 0 0 0 0 0 0 0 0 0 0
0 0 0 0 0 0 0 0 0 0 0 0 0 0 0 0 0 0 0 0 0 0 0 0 0 0 0 0 0 0 0 0 0 0 0 0 0 0 0 0 0 0 0
0 0 0 0 0 0 0 0 0 0 0 0 0 0 0 0 0 0 0 0 0 0 0 0 0 0 0 0 0 0 0 0 0 0 0 0 0 0 0 0 0 0 0
0 0 0 0 0 0 0 0 0 0 0 0 0 0 0 0 0 0 0 0 0 0 0 0 0 0 0 0 0 0 0 0 0 0 1 0 0 0 0 0 0 0 0
0 0 0 0 0 0 0 0 0 0 0 0 0 0 0 0 0 0 0 0 0 0 0 0 0 0 0 0 0 0 0 0 0 1 1 0 0 0 0 0 0 0 0
0 0 0 0 0 0 0 0 0 0 0 0 0 0 0 0 0 0 0 0 0 0 0 0 0 0 0 0 0 0 0 0 0 1 1 0 0 0 0 0 0 0 0
0 0 0 0 0 0 0 0 0 0 0 0 0 0 0 0 0 0 0 0 0 0 0 0 0 0 0 0 0 0 0 0 0 1 1 0 0 0 0 0 0 0 0
0 0 0 0 0 0 0 0 0 0 0 0 0 0 0 0 0 0 0 0 0 0 0 0 0 0 0 0 0 0 0 0 0 1 1 0 0 0 0 0 0 0 0
0 0 0 0 0 0 0 0 0 0 0 0 0 0 0 0 0 0 0 0 0 0 0 0 0 0 0 0 0 0 0 0 0 0 0 0 0 0 0 0 0 0 0
0 0 0 0 0 0 0 0 0 0 0 0 0 0 0 0 0 0 0 0 0 0 0 0 0 0 0 0 0 0 0 0 0 0 0 0 0 0 0 0 0 0 0
0 0 0 0 0 0 0 0 0 0 0 0 0 0 0 0 0 0 0 0 0 0 0 0 0 0 0 0 0 0 0 0 0 0 0 0 0 0 0 0 0 0 0
0 0 0 0 0 0 0 0 0 0 0 0 0 0 0 0 0 0 0 0 0 0 0 0 0 0 0 0 0 0 0 0 0 0 0 0 0 0 0 0 0 0 0
0 0 0 0 0 0 0 0 0 0 0 0 0 0 0 0 0 0 0 0 0 0 0 0 0 0 0 0 0 0 0 0 0 0 0 0 0 0 0 0 0 0 0
0 0 0 0 0 0 0 0 0 0 0 0 0 0 0 0 0 0 0 0 0 0 0 0 0 0 0 0 0 0 0 0 0 0 0 0 0 0 0 0 0 0 0
0 0 0 0 0 0 0 0 0 0 0 0 0 0 0 0 0 0 0 0 0 0 0 0 0 0 0 0 0 0 0 0 0 0 0 0 0 0 0 0 0 0 0
0 0 0 0 0 0 0 0 0 0 0 0 0 0 0 0 0 0 0 0 0 0 0 0 0 0 0 0 0 0 0 0 0 0 0 0 0 0 0 0 0 0 0
0 0 0 0 0 0 0 0 0 0 0 0 0 0 0 0 0 0 0 0 0 0 0 0 0 0 0 0 0 0 0 0 0 0 0 0 0 0 0 0 0 0 0
0 0 0 0 0 0 0 0 0 0 0 0 0 0 0 0 0 0 0 0 0 0 0 0 0 0 0 0 0 0 0 0 0 0 0 0 0 0 0 0 0 0 0
Wind_Speed
12 12 12 11 11 10 9 10 10 10 11 11 11 12 13 13 12 12 12 13 14 13 12 13 13 11 8 7 7 7 7 6 6 4 3 6 8 8 8 7 7 7 7
11 11 11 11 11 10 9 10 10 11 10 11 11 11 12 12 12 13 14 13 14 14 13 13 13 10 11 9 8 9 7 6 6 7 5 5 7 8 8 8 6 5 6
11 12 12 11 11 10 9 9 9 10 10 10 10 11 11 12 12 13 13 13 14 13 13 14 14 13 12 10 10 9 7 6 6 7 6 4 4 6 7 6 6 5 4
11 12 12 11 11 9 8 8 9 9 9 10 10 10 10 11 12 12 12 12 12 12 13 13 14 14 13 13 10 10 8 8 8 7 6 6 5 6 6 6 6 5 4
12 12 12 11 10 9 8 8 8 9 9 9 8 8 8 9 9 10 10 11 11 11 12 13 14 14 14 12 10 11 10 8 7 7 7 6 6 7 7 6 6 5 4
12 12 11 11 10 9 8 8 8 8 8 7 7 7 8 7 9 11 10 9 10 11 11 12 12 13 13 14 14 14 13 12 11 9 7 9 9 9 7 7 7 6 4
12 12 11 10 9 9 8 8 8 8 7 7 6 7 7 6 9 11 10 8 9 9 10 10 9 10 12 11 12 12 11 12 12 10 10 10 10 10 10 9 8 6 4
12 11 10 9 9 9 8 7 8 7 6 6 6 6 6 6 8 9 8 8 8 9 10 10 10 11 10 11 11 10 10 9 9 9 8 9 8 9 9 8 8 6 5
11 11 9 8 8 8 9 8 7 6 5 5 5 6 5 5 6 6 6 5 6 7 8 9 10 11 12 13 12 11 9 7 6 7 7 8 11 11 10 8 8 6 4
11 11 9 8 8 9 9 9 7 6 5 5 6 5 5 4 5 6 5 4 5 5 6 8 11 12 14 14 13 12 11 9 9 8 8 9 9 11 11 8 8 7 5
11 10 9 8 8 9 8 8 7 6 5 5 6 5 4 3 4 4 4 3 4 5 5 5 7 13 14 14 12 10 12 11 10 9 8 7 6 6 5 4 3 4 5
10 10 9 9 8 7 8 7 6 5 4 4 4 4 2 2 2 2 3 3 3 5 5 5 7 12 12 12 10 13 16 13 8 8 8 7 6 6 5 5 5 5 4
10 9 8 8 7 7 7 6 5 4 3 3 3 3 2 2 1 1 1 2 2 3 4 7 9 11 12 11 14 17 14 9 8 8 8 6 5 7 7 6 7 7 8
9 9 8 8 7 7 5 5 4 4 3 3 3 2 3 2 2 1 0 0 2 3 5 7 9 11 9 11 12 11 8 8 8 8 7 7 7 7 6 5 6 6 5
9 8 8 7 7 6 6 5 5 5 4 5 4 3 3 3 3 4 3 2 2 3 4 5 5 7 7 7 7 7 7 7 7 7 8 8 7 6 5 5 5 5 4
7 7 6 6 5 5 5 5 6 6 8 8 7 6 4 4 5 5 3 1 4 6 4 6 6 7 7 8 8 7 7 7 7 8 8 8 8 7 6 5 4 5 6
7 7 5 5 5 5 4 4 5 5 5 4 4 5 5 5 4 2 1 2 4 5 4 5 6 6 6 7 7 7 7 7 7 8 8 8 8 7 7 6 6 6 6
7 7 6 5 5 4 4 4 4 4 4 4 3 2 3 3 2 1 2 3 3 4 4 5 6 6 6 6 7 7 7 8 7 7 8 8 8 8 7 6 6 7 6
7 5 5 5 4 4 4 4 3 4 4 3 3 2 2 2 1 1 2 2 4 4 4 5 5 6 6 6 6 7 8 8 8 8 7 8 8 8 7 6 6 9 7
6 7 6 5 4 4 4 3 3 3 3 3 3 2 2 2 1 1 1 1 2 3 4 4 5 5 6 6 6 7 7 8 8 7 7 7 7 7 8 8 8 7 6
5 5 6 5 4 4 4 4 3 3 3 3 3 3 4 2 1 0 1 1 2 3 4 4 5 5 6 6 6 7 8 7 7 7 7 7 7 7 7 7 7 7 7
5 4 4 4 3 3 4 4 3 3 3 3 3 2 3 1 0 0 1 1 1 2 3 4 4 4 5 6 6 7 8 8 8 8 8 8 7 7 7 7 7 7 7
5 4 4 3 3 4 4 3 3 3 3 3 2 2 1 1 0 0 1 1 1 2 2 3 4 4 4 4 5 6 8 8 8 9 9 9 8 7 8 8 9 9 8
5 4 4 4 3 3 3 3 3 3 3 2 2 1 1 0 0 0 1 1 2 2 2 3 4 5 6 5 4 5 5 7 8 8 11 11 9 8 8 8 9 9 9
4 4 4 4 3 3 3 3 3 2 2 2 1 1 1 1 1 1 1 2 2 3 3 3 3 5 7 6 6 6 9 12 11 9 9 9 10 10 10 10 9 9 9
5 4 4 3 3 3 3 3 3 2 2 2 1 1 1 1 1 1 1 2 2 3 3 3 4 6 7 6 8 10 12 13 14 14 10 9 10 10 10 9 11 10 10
Wind_Direction
302 299 296 294 289 276 271 267 266 263 257 249 246 244 234 228 226 228 223 217 216 216 213 214 213 208 205 205 204 205 207 198 194 189 181 175 174 178 173 179 180 182 178
305 301 298 293 292 280 275 273 269 265 258 252 247 246 238 228 226 227 221 216 216 213 211 211 210 204 203 203 201 201 200 195 185 181 178 168 180 178 174 174 174 180 179
304 301 299 297 295 286 281 279 276 269 262 256 249 246 239 230 227 228 220 215 215 212 210 210 207 202 201 201 198 198 193 186 176 174 175 164 158 165 164 165 167 167 164
303 301 299 299 298 289 284 281 281 277 272 264 253 247 240 234 228 226 220 215 214 212 212 210 206 204 201 198 196 193 188 180 171 166 165 161 155 161 162 164 166 168 167
304 302 299 299 299 288 281 280 280 280 276 270 258 250 243 233 223 221 216 213 212 211 212 208 207 203 202 199 194 188 184 180 173 168 170 165 164 167 175 170 170 159 162
304 303 302 302 303 299 284 283 283 284 279 276 264 260 248 235 226 223 221 212 210 211 209 203 200 197 195 194 195 192 190 186 180 178 181 179 180 177 169 165 157 160 173
303 304 303 302 302 303 296 282 281 283 280 274 270 268 254 244 224 216 221 215 210 212 206 196 195 193 191 188 182 181 192 193 191 188 186 184 180 177 169 167 170 169 160
304 305 306 304 302 302 302 292 285 282 274 275 275 271 260 243 221 213 216 216 211 212 202 194 191 190 189 181 177 182 189 190 189 190 190 182 173 165 168 165 153 125 98
305 304 303 302 301 299 299 295 294 288 280 280 275 271 262 245 222 216 224 210 208 210 199 192 186 184 176 171 172 174 172 171 153 146 147 144 140 145 147 140 144 144 144
306 306 303 301 297 294 295 295 293 287 276 279 278 276 262 245 228 221 235 213 208 204 189 183 179 178 174 173 174 170 169 167 155 142 134 129 137 139 144 155 159 159 147
304 305 301 298 295 295 296 293 291 288 281 285 286 281 266 243 230 225 238 222 210 195 179 177 176 172 175 177 175 173 167 158 153 148 142 136 133 135 137 131 137 159 158
305 305 302 301 300 300 301 301 300 298 289 285 285 292 279 249 241 237 245 248 232 194 184 179 171 167 169 171 169 156 149 146 146 146 144 143 140 136 123 107 94 78 76
307 306 307 308 308 307 304 302 303 299 290 287 289 289 298 296 282 236 241 259 220 194 173 166 165 162 159 159 152 147 147 148 148 148 149 146 136 130 122 108 95 91 80
307 307 309 309 309 310 308 302 302 301 300 299 290 290 296 296 289 281 254 93 129 138 142 140 147 150 147 142 145 148 151 152 150 146 140 134 129 131 132 130 129 123 103
305 306 308 307 305 307 307 304 299 292 286 291 290 280 275 282 283 281 279 238 179 153 146 144 147 148 149 148 147 148 146 144 140 138 139 138 136 135 134 134 134 128 119
304 307 308 307 305 305 308 315 314 293 303 297 293 290 289 281 290 297 285 231 174 159 148 151 154 154 152 152 152 148 145 146 146 144 144 143 144 143 139 137 136 130 126
295 298 300 301 299 300 302 306 315 325 325 306 300 303 290 291 292 287 188 149 157 158 151 156 157 153 148 149 151 149 148 147 146 146 146 146 145 144 144 145 141 133 129
295 294 292 292 292 290 291 293 298 308 318 329 336 321 313 308 284 217 155 135 147 151 155 159 156 149 145 147 149 149 146 145 147 148 147 147 146 145 147 149 147 142 138
292 290 289 291 291 290 291 295 299 300 301 307 322 343 360 345 336 170 159 159 158 156 151 153 150 148 146 148 149 148 148 150 151 151 149 148 148 146 146 148 145 144 140
294 294 293 291 291 291 291 293 296 295 297 299 304 315 329 338 10 41 88 122 142 148 149 148 149 148 150 152 150 147 146 149 151 150 149 148 149 148 147 149 149 149 146
296 297 296 291 290 290 290 291 288 285 289 294 292 293 301 303 312 16 97 124 145 148 150 149 149 150 151 152 152 150 149 150 151 150 148 147 147 145 144 144 143 141 136
294 292 292 292 292 291 290 289 285 285 291 295 295 296 304 299 337 98 124 127 136 141 145 144 147 153 154 156 157 154 152 151 153 150 147 145 143 142 142 141 139 139 138
294 292 293 293 291 291 291 288 285 285 286 291 288 288 303 303 152 102 108 112 122 127 131 139 142 144 142 144 152 156 156 158 157 154 148 145 144 145 144 141 142 143 143
292 288 288 287 284 283 286 288 286 283 281 283 273 262 258 240 131 92 91 104 114 122 123 134 142 142 138 139 144 146 146 144 144 147 146 144 144 142 140 140 141 144 142
294 287 284 283 282 282 283 282 281 278 275 275 252 231 211 159 131 117 106 106 113 116 115 123 134 136 139 137 138 138 138 139 140 139 139 138 138 138 139 139 138 138 138
295 288 281 278 276 275 276 277 275 273 270 275 249 218 193 159 138 132 122 115 113 114 115 118 124 130 133 131 132 134 135 137 137 137 137 136 137 138 138 136 137 137 137